Content
SEND FEEDBACK

Daily
Averages
Monthly
Summary
United States of America

CAMP QUEZON, GUAM


Home > North America > United States > Guam
Elevation: 82 meters     Latitude: 13 28N     Longitude: 144 48E

WEATHER
 
SELECT A DAY
Number of Records: 209,044;   Date Range: 1/1/95 - 7/29/14
 
SHARE

PRINT THIS DATA

[ ← Previous Day ]
WEATHER ALMANAC - 14 AUGUST, 2013
[ Next Day → ]
[ °F ]   °C
Weather ElementAverageHighLow
Temperature27.8 °C30 °C (10:28 am)25 °C (6:54 am)
Dewpoint24.4 °C25.6 °C (8:54 am)23.9 °C (10:54 am)
Humidity82.3 %96 % (1:54 am)70 % (12:17 pm)
Barometer1010.8 hPa1012.5 hPa (9:51 am)1009.1 hPa (2:54 pm)
Wind Speed5.1 km/h13 km/h (7:54 am)
Weather ElementAverage
Visibility15.9 km
Wind DirectionENE (66.7 °)

Weather ElementTotal
Precipitation0.76 mm
Cooling Degree Days9.2 (Base 18.3)
Growing Degree Days17.5 (Base 10)
Averaged from 27 records on 14 August, 2013
WEATHER CONDITIONS BREAKOUT
WIND DIRECTION BREAKOUT
WEATHER BY HOUR - 14 AUGUST, 2013
[ °F ]   °C
Local TimeTemperatureDewpointHumidityBarometerVisibilityWind DirectionWind SpeedGust SpeedPrecipitationEventsConditions
1:54 AM25.6 °C25 °C96 %1010.2 hPa16.1 kmCalmClear
2:54 AM25.6 °C24.4 °C93 %1010.2 hPa16.1 kmCalmClear
3:54 AM25.6 °C24.4 °C93 %1010.2 hPa16.1 kmCalmClear
4:54 AM25.6 °C24.4 °C93 %1009.8 hPa16.1 kmCalmClear
5:54 AM25.6 °C24.4 °C93 %1010.2 hPa16.1 kmCalmPartly Cloudy
6:54 AM25 °C24.4 °C96 %1010.8 hPa16.1 kmCalmPartly Cloudy
7:54 AM26.1 °C25 °C94 %1011.5 hPa9.7 kmEast (100°)13 km/h0.25 mmRainLight Rain
8:54 AM26.7 °C25.6 °C94 %1011.5 hPa16.1 kmCalm0.51 mmRainLight Rain
9:51 AM29 °C25 °C79 %1012.5 hPa16.1 kmNNW (330°)5.6 km/h0 mmMostly Cloudy
9:54 AM28.9 °C25 °C79 %1011.9 hPa16.1 kmVariable5.6 km/h0 mmMostly Cloudy
10:28 AM30 °C25 °C74 %1011.9 hPa16.1 kmVariable5.6 km/hMostly Cloudy
10:54 AM28.3 °C23.9 °C77 %1011.2 hPa16.1 kmNorth (360°)9.3 km/h0 mmOvercast
11:38 AM29 °C24 °C74 %1011.5 hPa16.1 kmVariable5.6 km/hOvercast
11:54 AM30 °C25 °C74 %1010.5 hPa16.1 kmEast (100°)13 km/hMostly Cloudy
12:17 PM30 °C24 °C70 %1011.2 hPa16.1 kmSE (130°)9.3 km/hScattered Clouds
12:54 PM30 °C24.4 °C72 %1009.8 hPa16.1 kmESE (120°)13 km/hScattered Clouds
1:54 PM30 °C25 °C74 %1009.5 hPa16.1 kmESE (110°)11.1 km/hPartly Cloudy
2:54 PM30 °C24.4 °C72 %1009.1 hPa16.1 kmVariable11.1 km/hScattered Clouds
3:54 PM30 °C23.9 °C70 %1009.5 hPa16.1 kmSE (140°)11.1 km/hPartly Cloudy
4:54 PM29.4 °C23.9 °C72 %1009.5 hPa16.1 kmSE (140°)11.1 km/hClear
5:54 PM28.9 °C23.9 °C74 %1010.2 hPa16.1 kmSE (130°)7.4 km/hClear
6:54 PM28.3 °C24.4 °C79 %1010.5 hPa16.1 kmSE (140°)5.6 km/hClear
7:54 PM27.8 °C23.9 °C79 %1011.2 hPa16.1 kmCalmClear
8:54 PM27.2 °C24.4 °C85 %1011.5 hPa16.1 kmCalmClear
9:54 PM27.2 °C23.9 °C82 %1011.9 hPa16.1 kmCalmClear
10:54 PM25.6 °C23.9 °C90 %1011.9 hPa16.1 kmCalmClear
11:54 PM25 °C23.9 °C94 %1011.5 hPa16.1 kmCalmPartly Cloudy
Hourly data recorded from PGUM, located 0 kilometers away from Camp Quezon, Guam







STORIES FROM OUR PARTNERS